Regional Weather Roundup
Issued by NWS

Home | Current Version | Previous Version | Graphics & Text | Print | Product List | Glossary On
Versions: 1 2 3 4 5 6 7 8 9 10 11 12 13 14 15 16 17 18 19 20 21 22 23 24 25 26 27 28 29 30 31 32 33 34 35 36 37 38 39 40 41 42 43 44 45 46 47 48 49 50
781
ASUS43 KOAX 232202
RWRNE

WEATHER ROUNDUP FOR NEBRASKA
NATIONAL WEATHER SERVICE OMAHA NE
500 PM CDT MON MAY 23 2016

NOTES: SATELLITE DATA IS BEING USED TO AUGMENT CLOUD COVER ABOVE
       12000 FEET.
       "FAIR" INDICATES FEW OR NO CLOUDS BELOW 12,000 FEET WITH NO
       SIGNIFICANT WEATHER AND/OR OBSTRUCTIONS TO VISIBILITY.

  * THESE STATIONS DO NOT REPORT WEATHER SUCH AS RAIN...SNOW OR FOG.

NEZ001>004-019>022-054>056-232300-
NEBRASKA PANHANDLE

CITY           SKY/WX    TMP DP  RH WIND       PRES   REMARKS
SCOTTSBLUFF    LGT RAIN  60  40  47 S18G25    29.84F
ALLIANCE       CLOUDY    69  30  23 W18G25    29.80R
CHADRON        SUNNY     74  30  19 W15       29.76F
SIDNEY         SUNNY     71  33  24 S15G22    29.85S
$$

NEZ057>060-069>072-079>082-232300-
SOUTHWEST NEBRASKA

CITY           SKY/WX    TMP DP  RH WIND       PRES   REMARKS
NORTH PLATTE   SUNNY     77  39  25 W3        29.78F
IMPERIAL       SUNNY     74  34  23 S5        29.81F
LEXINGTON      SUNNY     77  52  41 CALM      29.77F
MCCOOK         SUNNY     79  50  36 NE6       29.77F
$$

NEZ005>010-023>029-035>040-094-232300-
NORTH CENTRAL NEBRASKA

CITY           SKY/WX    TMP DP  RH WIND       PRES   REMARKS
VALENTINE      SUNNY     78  29  16 SW15      29.73F
AINSWORTH      SUNNY     77  36  22 SW16      29.75S
BROKEN BOW     MOSUNNY   78  44  29 SW8       29.77S
ORD            PTSUNNY   76  55  48 S6        29.75S
$$

NEZ041-046>049-061>064-073>077-083>087-232300-
SOUTH CENTRAL NEBRASKA

CITY           SKY/WX    TMP DP  RH WIND       PRES   REMARKS
GRAND ISLAND   CLOUDY    74  66  76 S9        29.76F
AURORA         CLOUDY    75  59  58 S7        29.77F
HASTINGS       PTSUNNY   71  65  81 S3        29.76F
KEARNEY *      PTSUNNY   75  59  57 SW7       29.76F
YORK           CLOUDY    77  63  61 S13       29.77F
$$

NEZ011>018-030>034-042>045-232300-
NORTHEAST NEBRASKA

CITY           SKY/WX    TMP DP  RH WIND       PRES   REMARKS
NORFOLK        CLOUDY    75  61  61 SW14      29.75S
ALBION         CLOUDY    77  57  50 S9        29.76S
BLAIR          CLOUDY    69  64  83 S12G20    29.78F
FREMONT        CLOUDY    66  63  91 SE14      29.79R
TEKAMAH        CLOUDY    74  61  63 SE26G32   29.77F
$$

NEZ050>053-065>068-078-088>093-232300-
SOUTHEAST NEBRASKA

CITY           SKY/WX    TMP DP  RH WIND       PRES   REMARKS
LINCOLN        LGT RAIN  74  67  78 S13       29.77S
OMAHA EPPLEY   LGT RAIN  70  63  78 SE20      29.79F
BEATRICE       CLOUDY    74  62  64 S13       29.80S
FALLS CITY     PTSUNNY   71  62  73 SE15      29.82F
NEBRASKA CITY  CLOUDY    73  61  67 S20G26    29.82S
$$

NEZ044-045-051>053-067-232300-
OMAHA AREA

CITY           SKY/WX    TMP DP  RH WIND       PRES   REMARKS
OMAHA EPPLEY   LGT RAIN  70  63  78 SE20      29.79F
BLAIR          CLOUDY    69  64  83 S12G20    29.78F
FREMONT        CLOUDY    66  63  91 SE14      29.79R
OFFUTT AFB     CLOUDY    72  63  73 SE17G25   29.80S
WAHOO          HVY RAIN  70  66  88 S10G25    29.78S
$$




USA.gov is the U.S. government's official web portal to all federal, state and local government web resources and services.